Satellite: TACSAT-3
Catalog number: 35001
Epoch time:      10132.93678004
Element set:    0305
Inclination:      040.4570 deg
RA of node:       065.8111 deg
Eccentricity:    0.0019727
Arg of perigee:   101.4328 deg
Mean anomaly:     258.8705 deg
Mean motion:   15.41524656 rev/day
Decay rate:      4.813e-05 rev/day^2
Epoch rev:           05519
Checksum:              270

Satellite: PHARMSAT
Catalog number: 35002
Epoch time:      10132.96765215
Element set:    0274
Inclination:      040.4706 deg
RA of node:       063.7550 deg
Eccentricity:    0.0022979
Arg of perigee:   106.0940 deg
Mean anomaly:     254.2407 deg
Mean motion:   15.42081883 rev/day
Decay rate:      4.460e-05 rev/day^2
Epoch rev:           05521
Checksum:              266

Satellite: HAWKSAT1
Catalog number: 35003
Epoch time:      10132.87962265
Element set:    0291
Inclination:      040.4627 deg
RA of node:       060.0715 deg
Eccentricity:    0.0020780
Arg of perigee:   118.6164 deg
Mean anomaly:     241.6671 deg
Mean motion:   15.44899831 rev/day
Decay rate:      9.596e-05 rev/day^2
Epoch rev:           05525
Checksum:              295

Satellite: CP6
Catalog number: 35004
Epoch time:      10132.89440630
Element set:    0285
Inclination:      040.4678 deg
RA of node:       059.3025 deg
Eccentricity:    0.0019725
Arg of perigee:   123.4708 deg
Mean anomaly:     236.7881 deg
Mean motion:   15.45628069 rev/day
Decay rate:     1.1286e-04 rev/day^2
Epoch rev:           05525
Checksum:              299

Satellite: AEROCUB3
Catalog number: 35005
Epoch time:      10132.92341626
Element set:    0310
Inclination:      040.4745 deg
RA of node:       058.0980 deg
Eccentricity:    0.0016449
Arg of perigee:   134.9228 deg
Mean anomaly:     225.2824 deg
Mean motion:   15.49572420 rev/day
Decay rate:     3.2082e-04 rev/day^2
Epoch rev:           05527
Checksum:              272

Satellite: DRAGNSAT
Catalog number: 35690
Epoch time:      10076.22711312
Element set:     316
Inclination:      051.6170 deg
RA of node:       315.4586 deg
Eccentricity:    0.0004999
Arg of perigee:   310.9891 deg
Mean anomaly:     057.3269 deg
Mean motion:   16.42150010 rev/day
Decay rate:   5.715194e-02 rev/day^2
Epoch rev:            3656
Checksum:              289

Satellite: POLLUX
Catalog number: 35693
Epoch time:      10087.99866888
Element set:     352
Inclination:      051.6099 deg
RA of node:       254.5746 deg
Eccentricity:    0.0006270
Arg of perigee:   294.4866 deg
Mean anomaly:     097.5899 deg
Mean motion:   16.52338462 rev/day
Decay rate:  2.3496735e-01 rev/day^2
Epoch rev:            3839
Checksum:              384

Satellite: CASTOR
Catalog number: 35694
Epoch time:      10133.79239933
Element set:     371
Inclination:      051.6373 deg
RA of node:       023.6464 deg
Eccentricity:    0.0003780
Arg of perigee:   097.4785 deg
Mean anomaly:     262.6653 deg
Mean motion:   15.97564634 rev/day
Decay rate:     6.3345e-04 rev/day^2
Epoch rev:            4555
Checksum:              326

Satellite: METEOR-M
Catalog number: 35865
Epoch time:      10133.65216639
Element set:     290
Inclination:      098.7600 deg
RA of node:       187.6922 deg
Eccentricity:    0.0003357
Arg of perigee:   098.2506 deg
Mean anomaly:     261.9018 deg
Mean motion:   14.21830099 rev/day
Decay rate:       1.76e-06 rev/day^2
Epoch rev:            3381
Checksum:              300

Satellite: RS-38
Catalog number: 35869
Epoch time:      10133.76808857
Element set:     296
Inclination:      098.7601 deg
RA of node:       187.8375 deg
Eccentricity:    0.0005419
Arg of perigee:   099.9653 deg
Mean anomaly:     260.2095 deg
Mean motion:   14.21981425 rev/day
Decay rate:       1.77e-06 rev/day^2
Epoch rev:            3383
Checksum:              349

/EX




More information about the Keps mailing list